Tracking 30922 objects as of 2-Jul-2025
HD Live streaming from Space Station
objects crossing your sky now

YOUTHSAT

Track YOUTHSAT now!
10-day predictions
YOUTHSAT is classified as:


NORAD ID: 37388
Int'l Code: 2011-015B
Perigee: 804.7 km
Apogee: 823.9 km
Inclination: 98.3 °
Period: 101.0 minutes
Semi major axis: 7185 km
RCS: 0.6107 m2 (medium)
Launch date: April 20, 2011
Source: India (IND)
Launch site: SRIHARIKOTA (SRI)

YOUTHSAT, a joint mission between Indian and Russian students, carries three science instruments to study the upper atmosphere and measure solar cosmic rays.
Your satellite tracking list
Your tracking list is empty




NASA's NSSDC Master Catalog

Two Line Element Set (TLE):
1 37388U 11015B   25182.90901516  .00000152  00000-0  81855-4 0  9995
2 37388  98.3253 168.6704 0013379 293.0372 130.2340 14.25403011738262
Source of the keplerian elements: AFSPC